GW5333 Weather Reports


time (UTC)temp
C
wind
direction
speed
KPH
gust
KPH
rain 1hr
cm
rain 24hr
cm
rain mn
cm
humidity
%
barometer
mb
20260506013915 23 314 0.0 0.0 0.00 0.00 0.00 69 1006.9
20260506013414 24 305 0.0 0.0 0.00 0.00 0.00 68 1006.9
20260506012909 24 324 0.0 0.0 0.00 0.00 0.00 68 1006.9
20260506012406 24 346 0.0 0.0 0.00 0.00 0.00 68 1007.3
20260506011903 24 296 0.0 0.0 0.00 0.00 0.00 68 1007.3
20260506011400 24 326 0.0 0.0 0.00 0.00 0.00 68 1006.6
20260506010857 25 348 0.0 0.0 0.00 0.00 0.00 68 1006.6
20260506010355 25 14 0.0 0.0 0.00 0.00 0.00 68 1006.6
20260506005852 25 324 0.0 0.0 0.00 0.00 0.00 68 1006.6
20260506005349 25 359 0.0 0.0 0.00 0.00 0.00 68 1006.2
20260506004844 26 354 0.0 0.0 0.00 0.00 0.00 68 1006.6
20260506004343 26 332 0.0 0.0 0.00 0.00 0.00 66 1006.2
20260506003839 26 331 0.0 0.0 0.00 0.00 0.00 65 1006.2
20260506003335 26 316 0.0 0.0 0.00 0.00 0.00 65 1005.9
20260506002831 27 333 0.0 0.0 0.00 0.00 0.00 65 1006.2
20260506002328 27 332 0.0 0.0 0.00 0.00 0.00 64 1006.2
20260506001823 27 314 0.0 0.0 0.00 0.00 0.00 63 1006.2
20260506001321 28 347 0.0 0.0 0.00 0.00 0.00 63 1006.2
20260506000818 28 296 0.0 0.0 0.00 0.00 0.00 62 1006.2
20260506000316 28 328 0.0 0.0 0.00 0.00 0.00 62 1005.6
20260505235812 29 303 0.0 0.0 0.00 0.00 0.00 61 1005.2
20260505235310 29 343 0.0 0.0 0.00 0.00 0.00 60 1005.2
20260505234806 30 288 0.0 0.0 0.00 0.00 0.00 57 1005.6
20260505234304 30 332 0.0 0.0 0.00 0.00 0.00 54 1005.2
20260505233801 30 307 0.0 0.0 0.00 0.00 0.00 53 1005.6
20260505233259 30 309 0.0 0.0 0.00 0.00 0.00 52 1005.2
20260505232755 31 292 0.0 0.0 0.00 0.00 0.00 52 1005.6
20260505232253 31 351 0.0 0.0 0.00 0.00 0.00 53 1005.2
20260505231749 31 307 0.0 0.0 0.00 0.00 0.00 65 1005.2
20260505231248 32 142 0.0 0.0 0.00 0.00 0.00 65 1004.9
20260505230746 32 168 0.0 0.0 0.00 0.00 0.00 64 1004.9
20260505230242 32 161 0.0 0.0 0.00 0.00 0.00 62 1004.4
20260505225739 32 150 0.0 0.0 0.00 0.00 0.00 56 1004.4
20260505225236 32 178 0.0 0.0 0.00 0.00 0.00 54 1004.9
20260505224731 32 229 0.0 0.0 0.00 0.00 0.00 54 1004.4
20260505224229 32 160 0.0 0.0 0.00 0.00 0.00 54 1004.4
20260505223727 33 170 0.0 0.0 0.00 0.00 0.00 54 1004.4
20260505223223 33 176 0.0 0.0 0.00 0.00 0.00 53 1004.4
20260505222719 33 158 0.0 0.0 0.00 0.00 0.00 53 1004.4
20260505222215 33 129 0.0 0.0 0.00 0.00 0.00 53 1004.4
20260505221713 33 165 0.0 0.0 0.00 0.00 0.00 53 1004.4
20260505221209 34 177 0.0 0.0 0.00 0.00 0.00 51 1004.1
20260505220706 34 213 0.0 0.0 0.00 0.00 0.00 51 1004.4
20260505220204 34 197 0.0 0.0 0.00 0.00 0.00 51 1004.4
20260505215701 34 165 0.0 0.0 0.00 0.00 0.00 49 1004.4
20260505215159 33 185 0.0 0.0 0.00 0.00 0.00 50 1004.4
20260505214657 33 145 0.0 0.0 0.00 0.00 0.00 50 1004.4
20260505214154 33 198 0.0 0.0 0.00 0.00 0.00 53 1004.4
20260505213651 33 243 0.0 0.0 0.00 0.00 0.00 53 1004.9
20260505213148 34 233 0.0 0.0 0.00 0.00 0.00 51 1004.4
20260505212644 33 213 0.0 0.0 0.00 0.00 0.00 51 1004.4
20260505212142 34 136 0.0 0.0 0.00 0.00 0.00 52 1004.9
20260505211638 34 252 0.0 0.0 0.00 0.00 0.00 51 1004.9
20260505211136 34 229 0.0 0.0 0.00 0.00 0.00 51 1004.9
20260505210632 33 195 0.0 0.0 0.00 0.00 0.00 51 1004.9
20260505210129 33 228 0.0 0.0 0.00 0.00 0.00 52 1004.9
20260505205627 33 245 0.0 0.0 0.00 0.00 0.00 52 1004.9
20260505205125 33 201 0.0 0.0 0.00 0.00 0.00 51 1005.2
20260505204621 33 202 0.0 0.0 0.00 0.00 0.00 52 1005.2
20260505204119 33 254 0.0 0.0 0.00 0.00 0.00 54 1005.2
20260505203615 33 131 0.0 0.0 0.00 0.00 0.00 53 1005.6
20260505203113 33 272 0.0 0.0 0.00 0.00 0.00 54 1005.6
20260505202608 33 214 0.0 0.0 0.00 0.00 0.00 53 1005.2
20260505202104 33 139 0.0 0.0 0.00 0.00 0.00 53 1005.6
20260505201601 33 176 0.0 0.0 0.00 0.00 0.00 53 1005.6
20260505201059 32 209 0.0 0.0 0.00 0.00 0.00 55 1005.2
20260505200556 32 204 0.0 0.0 0.00 0.00 0.00 56 1005.6
20260505200053 32 177 0.0 0.0 0.00 0.00 0.00 56 1005.6
20260505195549 32 171 0.0 0.0 0.00 0.00 0.00 56 1005.6
20260505195047 32 228 0.0 0.0 0.00 0.00 0.00 57 1005.6
20260505194544 31 121 0.0 0.0 0.00 0.00 0.00 58 1005.6
20260505194039 31 118 0.0 0.0 0.00 0.00 0.00 59 1005.6
20260505193537 31 196 0.0 0.0 0.00 0.00 0.00 60 1005.9
20260505193034 31 169 0.0 4.8 0.00 0.00 0.00 60 1005.6
20260505192532 31 161 0.0 0.0 0.00 0.00 0.00 62 1005.9
20260505192030 31 137 0.0 0.0 0.00 0.00 0.00 62 1005.6
20260505191528 30 172 0.0 0.0 0.00 0.00 0.00 62 1005.6
20260505191025 30 212 0.0 0.0 0.00 0.00 0.00 62 1005.6
20260505190520 30 173 0.0 0.0 0.00 0.00 0.00 61 1005.6
20260505190016 30 204 0.0 0.0 0.00 0.00 0.00 62 1005.9
20260505185513 30 112 0.0 0.0 0.00 0.00 0.00 62 1005.9
20260505185009 30 140 0.0 0.0 0.00 0.00 0.00 64 1006.2
20260505184506 30 193 0.0 0.0 0.00 0.00 0.00 64 1006.2
20260505184003 30 168 0.0 0.0 0.00 0.00 0.00 64 1005.9
20260505183500 30 156 0.0 0.0 0.00 0.00 0.00 64 1005.9
20260505182956 30 149 0.0 0.0 0.00 0.00 0.00 65 1005.9
20260505182454 30 200 0.0 0.0 0.00 0.00 0.00 64 1005.6
20260505181950 30 173 0.0 0.0 0.00 0.00 0.00 64 1006.2
20260505181447 30 150 0.0 0.0 0.00 0.00 0.00 64 1005.9
20260505180944 30 160 0.0 0.0 0.00 0.00 0.00 63 1005.9
20260505180440 30 184 0.0 0.0 0.00 0.00 0.00 62 1006.2
20260505175937 30 172 0.0 0.0 0.00 0.00 0.00 63 1005.9
20260505175433 29 164 0.0 0.0 0.00 0.00 0.00 64 1006.2
20260505174930 29 140 0.0 0.0 0.00 0.00 0.00 64 1005.6
20260505174427 29 200 0.0 0.0 0.00 0.00 0.00 64 1006.2
20260505173923 29 210 0.0 0.0 0.00 0.00 0.00 63 1005.9
20260505173420 28 148 0.0 0.0 0.00 0.00 0.00 64 1005.9
20260505172917 28 179 0.0 0.0 0.00 0.00 0.00 64 1006.2
20260505172415 28 135 0.0 0.0 0.00 0.00 0.00 65 1006.2
20260505171914 28 184 0.0 0.0 0.00 0.00 0.00 65 1005.9
20260505171411 28 180 0.0 0.0 0.00 0.00 0.00 66 1006.2
20260505170908 28 181 0.0 0.0 0.00 0.00 0.00 66 1006.2
20260505170405 28 161 0.0 0.0 0.00 0.00 0.00 66 1006.2
20260505165900 28 193 0.0 0.0 0.00 0.00 0.00 66 1006.2
20260505165356 28 191 0.0 4.8 0.00 0.00 0.00 66 1005.9
20260505164852 28 195 0.0 0.0 0.00 0.00 0.00 66 1006.2
20260505164348 28 152 0.0 0.0 0.00 0.00 0.00 67 1005.9
20260505163847 28 144 4.8 11.3 0.00 0.00 0.00 66 1005.9
20260505163345 28 160 0.0 0.0 0.00 0.00 0.00 67 1005.9
20260505162843 28 210 0.0 0.0 0.00 0.00 0.00 67 1005.9
20260505162339 28 215 0.0 0.0 0.00 0.00 0.00 67 1005.9
20260505161837 28 221 0.0 0.0 0.00 0.00 0.00 65 1005.9
20260505161334 27 155 0.0 0.0 0.00 0.00 0.00 67 1005.9
20260505160831 27 168 0.0 0.0 0.00 0.00 0.00 66 1005.6
20260505160329 27 170 1.6 11.3 0.00 0.00 0.00 67 1005.9
20260505153308 27 173 0.0 0.0 0.00 0.00 0.00 70 1005.9
20260505152805 26 143 0.0 0.0 0.00 0.00 0.00 70 1005.9
20260505152304 26 178 0.0 0.0 0.00 0.00 0.00 69 1005.9
20260505151755 26 166 0.0 0.0 0.00 0.00 0.00 70 1005.9
20260505151253 25 136 0.0 0.0 0.00 0.00 0.00 71 1006.2
20260505150750 25 185 0.0 0.0 0.00 0.00 0.00 73 1005.9
20260505150247 25 162 0.0 0.0 0.00 0.00 0.00 74 1005.9
20260505140217 23 183 0.0 0.0 0.00 0.00 0.00 81 1005.9
20260505130141 22 175 0.0 0.0 0.00 0.00 0.00 82 1005.6
20260505124630 22 194 0.0 0.0 0.00 0.00 0.00 83 1005.9
20260505124127 22 183 0.0 0.0 0.00 0.00 0.00 83 1005.6
20260505123623 22 179 0.0 0.0 0.00 0.00 0.00 83 1005.6
20260505123120 22 150 0.0 0.0 0.00 0.00 0.00 83 1005.2
20260505122617 22 142 0.0 0.0 0.00 0.00 0.00 83 1005.2
20260505122114 22 173 0.0 0.0 0.00 0.00 0.00 83 1005.2
20260505121610 22 155 0.0 0.0 0.00 0.00 0.00 83 1005.2
20260505121107 22 160 0.0 0.0 0.00 0.00 0.00 83 1005.2
20260505120603 22 176 0.0 0.0 0.00 0.00 0.00 83 1005.2
20260505120059 22 164 0.0 0.0 0.00 0.00 0.00 83 1005.2
20260505115554 22 158 0.0 0.0 0.00 0.00 0.00 83 1005.2
20260505115051 22 99 0.0 0.0 0.00 0.00 0.00 83 1005.2
20260505114548 22 171 0.0 0.0 0.00 0.00 0.00 83 1004.9
20260505114044 22 134 0.0 0.0 0.00 0.00 0.00 83 1005.2
20260505113541 22 179 0.0 0.0 0.00 0.00 0.00 83 1005.2
20260505113037 22 131 0.0 0.0 0.00 0.00 0.00 83 1004.9
20260505112529 22 161 0.0 0.0 0.00 0.00 0.00 83 1005.2
20260505112027 22 163 0.0 0.0 0.00 0.00 0.00 83 1004.9
20260505111525 22 186 0.0 0.0 0.00 0.00 0.00 83 1004.9
20260505111022 22 171 0.0 0.0 0.00 0.00 0.00 83 1004.9
20260505110519 22 170 0.0 0.0 0.00 0.00 0.00 83 1004.9
20260505101951 22 156 0.0 0.0 0.00 0.00 0.00 82 1004.9
20260505101449 22 146 0.0 0.0 0.00 0.00 0.00 82 1004.9
20260505100945 22 179 1.6 8.0 0.00 0.00 0.00 82 1005.2
20260505100443 22 208 0.0 0.0 0.00 0.00 0.00 82 1004.9
20260505095939 22 169 0.0 0.0 0.00 0.00 0.00 82 1004.9
20260505095436 22 192 0.0 0.0 0.00 0.00 0.00 82 1005.2
20260505094932 22 168 1.6 4.8 0.00 0.00 0.00 82 1005.2
20260505094429 22 165 0.0 0.0 0.00 0.00 0.00 82 1004.9
20260505093925 22 145 0.0 0.0 0.00 0.00 0.00 82 1005.2
20260505093422 22 152 0.0 0.0 0.00 0.00 0.00 82 1005.2
20260505092919 22 173 0.0 0.0 0.00 0.00 0.00 82 1005.6
20260505092417 22 230 0.0 0.0 0.00 0.00 0.00 82 1005.6
20260505091914 22 66 0.0 0.0 0.00 0.00 0.00 82 1005.2
20260505091412 22 187 0.0 0.0 0.00 0.00 0.00 83 1005.6
20260505090909 22 182 0.0 0.0 0.00 0.00 0.00 83 1005.2
20260505090408 22 163 1.6 8.0 0.00 0.00 0.00 83 1005.6
20260505085904 22 160 0.0 0.0 0.00 0.00 0.00 83 1005.2
20260505085402 22 169 0.0 0.0 0.00 0.00 0.00 83 1005.2
20260505084900 22 201 0.0 0.0 0.00 0.00 0.00 83 1005.2
20260505084358 22 90 0.0 0.0 0.00 0.00 0.00 83 1005.6
20260505083856 22 168 0.0 0.0 0.00 0.00 0.00 83 1005.2
20260505083353 22 163 0.0 0.0 0.00 0.00 0.00 83 1005.2
20260505082849 22 131 0.0 0.0 0.00 0.00 0.00 83 1005.6
20260505082345 22 135 0.0 0.0 0.00 0.00 0.00 83 1005.6
20260505081842 22 170 0.0 0.0 0.00 0.00 0.00 82 1005.6
20260505081339 22 207 0.0 0.0 0.00 0.00 0.00 82 1005.6
20260505080836 22 168 0.0 0.0 0.00 0.00 0.00 82 1005.6
20260505080331 22 175 0.0 0.0 0.00 0.00 0.00 82 1005.6
20260505075827 22 161 0.0 0.0 0.00 0.00 0.00 82 1005.6
20260505075324 22 167 0.0 0.0 0.00 0.00 0.00 82 1005.6
20260505074822 22 176 0.0 0.0 0.00 0.00 0.00 81 1005.6
20260505074319 22 156 4.8 11.3 0.00 0.00 0.00 81 1005.6
20260505073816 22 164 0.0 0.0 0.00 0.00 0.00 81 1005.9
20260505073314 22 159 0.0 0.0 0.00 0.00 0.00 81 1005.9
20260505072811 22 211 0.0 0.0 0.00 0.00 0.00 80 1006.2
20260505072307 22 170 0.0 4.8 0.00 0.00 0.00 80 1006.2
20260505071803 22 196 0.0 0.0 0.00 0.00 0.00 80 1006.2
20260505071259 22 170 12.9 19.3 0.00 0.00 0.00 80 1006.2
20260505070757 22 173 3.2 11.3 0.00 0.00 0.00 79 1006.2
20260505070254 22 136 0.0 0.0 0.00 0.00 0.00 79 1006.2
20260505065748 22 230 0.0 0.0 0.00 0.00 0.00 79 1006.6
20260505065246 22 199 0.0 4.8 0.00 0.00 0.00 79 1006.2
20260505064743 22 180 0.0 0.0 0.00 0.00 0.00 78 1006.6
20260505064240 22 85 0.0 0.0 0.00 0.00 0.00 78 1006.2
20260505063738 22 194 0.0 4.8 0.00 0.00 0.00 78 1006.6
20260505063234 22 176 0.0 0.0 0.00 0.00 0.00 78 1006.6
20260505062730 22 156 0.0 0.0 0.00 0.00 0.00 77 1006.6
20260505062228 22 185 4.8 11.3 0.00 0.00 0.00 77 1006.6
20260505061725 22 137 0.0 0.0 0.00 0.00 0.00 77 1006.6
20260505061223 22 162 0.0 0.0 0.00 0.00 0.00 77 1006.6
20260505060720 22 172 4.8 11.3 0.00 0.00 0.00 77 1006.2
20260505060217 22 196 0.0 0.0 0.00 0.00 0.00 76 1006.2
20260505055712 23 149 0.0 0.0 0.00 0.00 0.00 76 1006.6
20260505055209 23 129 1.6 8.0 0.00 0.00 0.00 76 1006.6
20260505054706 23 131 0.0 0.0 0.00 0.00 0.00 76 1006.9
20260505054204 23 184 0.0 0.0 0.00 0.00 0.00 75 1006.9
20260505053702 23 204 0.0 0.0 0.00 0.00 0.00 75 1006.6
20260505053158 23 183 1.6 4.8 0.00 0.00 0.00 75 1006.9
20260505052655 23 164 0.0 0.0 0.00 0.00 0.00 75 1007.3
20260505052152 23 165 0.0 0.0 0.00 0.00 0.00 74 1006.9
20260505051649 23 168 0.0 0.0 0.00 0.00 0.00 74 1006.9
20260505051147 23 237 0.0 0.0 0.00 0.00 0.00 74 1006.9
20260505050645 23 171 0.0 0.0 0.00 0.00 0.00 74 1007.3
20260505050143 23 144 0.0 0.0 0.00 0.00 0.00 73 1006.9
20260505041613 23 161 0.0 0.0 0.00 0.00 0.00 71 1007.6
20260505041110 23 144 0.0 0.0 0.00 0.00 0.00 71 1007.3
20260505040607 23 166 0.0 0.0 0.00 0.00 0.00 71 1007.6
20260505040104 23 141 0.0 0.0 0.00 0.00 0.00 70 1007.3
20260505035600 23 149 0.0 0.0 0.00 0.00 0.00 70 1007.3
20260505035057 23 154 0.0 4.8 0.00 0.00 0.00 70 1007.3
20260505034553 23 139 0.0 0.0 0.00 0.00 0.00 70 1007.3
20260505034050 23 166 0.0 0.0 0.00 0.00 0.00 70 1007.3
20260505033547 23 132 0.0 0.0 0.00 0.00 0.00 70 1006.9
20260505033045 23 171 0.0 0.0 0.00 0.00 0.00 70 1007.3
20260505032543 23 170 0.0 0.0 0.00 0.00 0.00 70 1007.3
20260505032039 24 147 0.0 0.0 0.00 0.00 0.00 69 1007.3
20260505031537 24 128 0.0 0.0 0.00 0.00 0.00 69 1007.6
20260505031033 24 181 0.0 4.8 0.00 0.00 0.00 69 1007.3
20260505030530 24 217 0.0 4.8 0.00 0.00 0.00 69 1007.3
20260505030026 24 150 0.0 0.0 0.00 0.00 0.00 69 1007.3
20260505025522 24 183 0.0 0.0 0.00 0.00 0.00 69 1007.6
20260505025021 24 135 0.0 0.0 0.00 0.00 0.00 69 1007.3
20260505024517 24 167 0.0 4.8 0.00 0.00 0.00 69 1006.9
20260505024015 24 186 4.8 11.3 0.00 0.00 0.00 68 1007.3
20260505023511 24 168 0.0 0.0 0.00 0.00 0.00 68 1007.3
20260505023009 24 125 0.0 0.0 0.00 0.00 0.00 68 1007.3
20260505022507 24 188 0.0 0.0 0.00 0.00 0.00 68 1007.3
20260505022004 24 171 0.0 0.0 0.00 0.00 0.00 68 1007.3
20260505021500 24 157 0.0 0.0 0.00 0.00 0.00 68 1007.3
20260505020956 25 172 0.0 0.0 0.00 0.00 0.00 67 1007.3
20260505020451 25 160 0.0 0.0 0.00 0.00 0.00 67 1007.3
20260505015948 25 152 0.0 0.0 0.00 0.00 0.00 67 1007.3
20260505015446 25 174 1.6 4.8 0.00 0.00 0.00 67 1007.3
20260505014943 25 185 0.0 0.0 0.00 0.00 0.00 66 1006.9
20260505014439 25 174 0.0 0.0 0.00 0.00 0.00 66 1007.3